FLOCK 3R-4 (43733 NORAD) Tracking and Keplerian Element Data

This shows tracking and keplerian element data for the satellite.

Feedback or suggestion? Click here.




ElementValue
Catalog43733
NameFLOCK 3R-4
Epoch Orbit172
Epoch Day344.52049984
Epoch Year2018
RAAN49.5336
Inclination97.4834
Eccentricity0.0019883
Argument of Perigee288.688
Mean Anonmoly179.5123
Mean Motion15.26697183
Decay Rate2.552E-05
L11 43733U 18096Q 18344.52049984 .00002552 00000-0 99598-4 0 9993
L22 43733 97.4834 49.5336 0019883 288.6880 179.5123 15.26697183 1722

Live tracking and technical data element details for FLOCK 3R-4 (NORAD 43733). FLOCK 3R-4 can be tracked NOW for your location showing map with azimuth and elevation plus other details from your city location.

Track the satellite on the map from your city or location and see movement details for azimuth, elevation, latitude, longitude, range, height, and movement on the map or in text.







IsCatalogInMostPopularTable: catalog: 43733, numindb: 5
Update: records affected: 1



GetName: 43733 FLOCK 3R-4

Hit Count: updated at: Tue, 11 Dec 2018 01:52:48 GMT